Weather History for KAIO - March, 2012

Change the Weather History Date:

Saturday, March 10, 2012

  Actual Average Record
Temperature  
Mean Temperature 52 °F -  
Max Temperature 69 °F 39 °F 69 °F (2012)
Min Temperature 35 °F 22 °F 0 °F (1998)
Degree Days  
Heating Degree Days 13    
Growing Degree Days 2 (Base 50)    
Moisture  
Dew Point 11 °F    
Average Humidity 34    
Maximum Humidity 65    
Minimum Humidity 4    
Precipitation  
Precipitation 0.00 in - - ()
Sea Level Pressure  
Sea Level Pressure 30.21 in    
Wind  
Wind Speed 14 mph (SSW)    
Max Wind Speed 29 mph    
Max Gust Speed 37 mph    
Visibility 10 miles    
Events      
Averages and records for this station are not official NWS values.
T = Trace of Precipitation, MM = Missing Value Source: NWS Daily Summary

Daily Weather History Graph

Daily Weather History Graph

Search for Another Location

Airport or City:

Trip Planner

Search our weather history database for the weather conditions in past years. The results will help you decide how hot, cold, wet, or windy it might be!

Date:

Astronomy

Mar. 10, 2012 Rise Set
Actual Time 6:39 AM CST 6:21 PM CST
Civil Twilight 6:11 AM CST 6:49 PM CST
Nautical Twilight 5:39 AM CST 7:21 PM CST
Astronomical Twilight 5:07 AM CST 7:53 PM CST
Moon 9:38 PM CST (3/10) 7:32 AM CST (3/10)
Length of Visible Light 12h 37m
Length of Day
11h 42m
Waning Gibbous, 92% of the Moon is Illuminated
Mar 10
Waning Gibbous
Mar 14
Last Quarter
Mar 22
New
Mar 30
First Quarter
Apr 6
Full

Hourly Weather History & Observations

Time (CST) Temp. Windchill Dew Point Humidity Pressure Visibility Wind Dir Wind Speed Gust Speed Precip Events Conditions
12:15 AM 42.8 °F 36.2 °F 24.8 °F 49% 30.30 in 10.0 mi South 12.7 mph - N/A   Clear
12:35 AM 42.8 °F 37.0 °F 24.8 °F 49% 30.30 in 10.0 mi South 10.4 mph - N/A   Clear
12:55 AM 41.0 °F 34.7 °F 24.8 °F 53% 30.29 in 10.0 mi South 10.4 mph - N/A   Clear
1:15 AM 39.2 °F 32.5 °F 24.8 °F 56% 30.29 in 10.0 mi South 10.4 mph - N/A   Clear
1:35 AM 39.2 °F 33.0 °F 24.8 °F 56% 30.29 in 10.0 mi SSW 9.2 mph - N/A   Clear
1:55 AM 39.2 °F 33.0 °F 23.0 °F 52% 30.28 in 10.0 mi South 9.2 mph - N/A   Clear
2:15 AM 37.4 °F 30.3 °F 23.0 °F 56% 30.28 in 10.0 mi South 10.4 mph - N/A   Clear
2:35 AM 39.2 °F 31.6 °F 23.0 °F 52% 30.27 in 10.0 mi South 12.7 mph - N/A   Clear
2:55 AM 39.2 °F 32.5 °F 23.0 °F 52% 30.27 in 10.0 mi South 10.4 mph - N/A   Clear
3:15 AM 39.2 °F 33.0 °F 23.0 °F 52% 30.26 in 10.0 mi South 9.2 mph - N/A   Clear
3:35 AM 37.4 °F 32.1 °F 23.0 °F 56% 30.26 in 10.0 mi South 6.9 mph - N/A   Clear
3:55 AM 37.4 °F 30.8 °F 23.0 °F 56% 30.26 in 10.0 mi South 9.2 mph - N/A   Clear
4:15 AM 37.4 °F 31.4 °F 23.0 °F 56% 30.26 in 10.0 mi South 8.1 mph - N/A   Clear
4:35 AM 37.4 °F 31.4 °F 23.0 °F 56% 30.26 in 10.0 mi South 8.1 mph - N/A   Clear
4:55 AM 37.4 °F 31.4 °F 23.0 °F 56% 30.26 in 10.0 mi South 8.1 mph - N/A   Clear
5:15 AM 35.6 °F 29.9 °F 23.0 °F 60% 30.26 in 10.0 mi South 6.9 mph - N/A   Clear
5:35 AM 35.6 °F 29.9 °F 23.0 °F 60% 30.25 in 10.0 mi South 6.9 mph - N/A   Clear
5:55 AM 35.6 °F 29.2 °F 24.8 °F 65% 30.25 in 10.0 mi South 8.1 mph - N/A   Clear
6:15 AM 37.4 °F 30.8 °F 24.8 °F 60% 30.25 in 10.0 mi South 9.2 mph - N/A   Clear
6:35 AM 37.4 °F 31.4 °F 24.8 °F 60% 30.25 in 10.0 mi South 8.1 mph - N/A   Clear
6:55 AM 37.4 °F 30.8 °F 24.8 °F 60% 30.26 in 10.0 mi South 9.2 mph - N/A   Clear
7:15 AM 37.4 °F 30.8 °F 24.8 °F 60% 30.26 in 10.0 mi South 9.2 mph - N/A   Clear
7:35 AM 39.2 °F 34.2 °F 26.6 °F 61% 30.26 in 10.0 mi South 6.9 mph - N/A   Clear
7:55 AM 42.8 °F 37.0 °F 26.6 °F 53% 30.26 in 10.0 mi South 10.4 mph - N/A   Clear
8:15 AM 44.6 °F 38.4 °F 26.6 °F 49% 30.25 in 10.0 mi South 12.7 mph - N/A   Clear
8:35 AM 48.2 °F - 24.8 °F 40% 30.25 in 10.0 mi SSW 15.0 mph - N/A   Clear
8:55 AM 51.8 °F - 24.8 °F 35% 30.25 in 10.0 mi SSW 19.6 mph 23.0 mph N/A   Clear
9:15 AM 53.6 °F - 23.0 °F 30% 30.25 in 10.0 mi SSW 17.3 mph 27.6 mph N/A   Clear
9:35 AM 55.4 °F - 21.2 °F 26% 30.24 in 10.0 mi SSW 19.6 mph - N/A   Clear
9:55 AM 55.4 °F - 19.4 °F 25% 30.24 in 10.0 mi SSW 25.3 mph 31.1 mph N/A   Clear
10:15 AM 57.2 °F - 17.6 °F 21% 30.23 in 10.0 mi SW 25.3 mph 31.1 mph N/A   Clear
10:35 AM 59.0 °F - 14.0 °F 17% 30.22 in 10.0 mi SW 24.2 mph 31.1 mph N/A   Clear
10:55 AM 60.8 °F - 14.0 °F 16% 30.22 in 10.0 mi SSW 25.3 mph 29.9 mph N/A   Clear
11:15 AM 60.8 °F - 12.2 °F 15% 30.20 in 10.0 mi SSW 24.2 mph - N/A   Clear
11:35 AM 62.6 °F - 10.4 °F 13% 30.20 in 10.0 mi SSW 24.2 mph 31.1 mph N/A   Clear
11:55 AM 62.6 °F - 12.2 °F 14% 30.19 in 10.0 mi SSW 23.0 mph 27.6 mph N/A   Clear
12:15 PM 64.4 °F - 10.4 °F 12% 30.18 in 10.0 mi SSW 24.2 mph 29.9 mph N/A   Clear
12:35 PM 66.2 °F - -4.0 °F 6% 30.17 in 10.0 mi SSW 28.8 mph 35.7 mph N/A   Clear
12:55 PM 66.2 °F - -0.4 °F 7% 30.16 in 10.0 mi SSW 24.2 mph - N/A   Clear
1:15 PM 68.0 °F - -7.6 °F 5% 30.15 in 10.0 mi SSW 26.5 mph 33.4 mph N/A   Clear
1:35 PM 68.0 °F - -16.6 °F 4% 30.14 in 10.0 mi SSW 26.5 mph 36.8 mph N/A   Clear
1:55 PM 68.0 °F - -29.2 °F 4% 30.13 in 10.0 mi SSW 25.3 mph 36.8 mph N/A   Clear
2:15 PM 69.8 °F - - N/A% 30.13 in 10.0 mi SSW 24.2 mph 33.4 mph N/A   Clear
2:35 PM 69.8 °F - -27.4 °F 4% 30.12 in 10.0 mi SSW 24.2 mph 34.5 mph N/A   Clear
2:55 PM 69.8 °F - -32.8 °F 4% 30.11 in 10.0 mi SSW 25.3 mph 33.4 mph N/A   Clear
3:15 PM 69.8 °F - -25.6 °F 4% 30.11 in 10.0 mi SSW 24.2 mph 31.1 mph N/A   Clear
3:35 PM 69.8 °F - -29.2 °F 4% 30.10 in 10.0 mi SSW 26.5 mph 32.2 mph N/A   Clear
3:55 PM 69.8 °F - -34.6 °F 4% 30.10 in 10.0 mi SSW 23.0 mph 28.8 mph N/A   Clear
4:15 PM 69.8 °F - - N/A% 30.09 in 10.0 mi SSW 23.0 mph 28.8 mph N/A   Clear
4:35 PM 69.8 °F - - N/A% 30.08 in 10.0 mi SSW 21.9 mph 27.6 mph N/A   Clear
4:55 PM 68.0 °F - - N/A% 30.08 in 10.0 mi SSW 20.7 mph 25.3 mph N/A   Clear
5:15 PM 68.0 °F - -25.6 °F 4% 30.08 in 10.0 mi SSW 16.1 mph 24.2 mph N/A   Clear
5:35 PM 66.2 °F - -16.6 °F 4% 30.07 in 10.0 mi SSW 19.6 mph - N/A   Clear
5:55 PM 64.4 °F - -9.4 °F 5% 30.07 in 10.0 mi SSW 13.8 mph - N/A   Clear
6:15 PM 62.6 °F - -2.2 °F 7% 30.08 in 10.0 mi SSW 12.7 mph - N/A   Clear
6:35 PM 57.2 °F - 6.8 °F 13% 30.09 in 10.0 mi SSW 9.2 mph - N/A   Clear
6:55 PM 55.4 °F - 10.4 °F 17% 30.09 in 10.0 mi South 5.8 mph - N/A   Clear
7:15 PM 51.8 °F - 12.2 °F 21% 30.10 in 10.0 mi SSW 8.1 mph - N/A   Clear
7:35 PM 51.8 °F - 15.8 °F 24% 30.10 in 10.0 mi South 9.2 mph - N/A   Clear
7:55 PM 53.6 °F - 15.8 °F 22% 30.10 in 10.0 mi South 11.5 mph - N/A   Clear
8:15 PM 55.4 °F - 15.8 °F 21% 30.11 in 10.0 mi South 15.0 mph 18.4 mph N/A   Clear
8:35 PM 53.6 °F - 19.4 °F 26% 30.11 in 10.0 mi South 12.7 mph 17.3 mph N/A   Clear
8:55 PM 53.6 °F - 21.2 °F 28% 30.11 in 10.0 mi South 12.7 mph - N/A   Clear
9:15 PM 53.6 °F - 21.2 °F 28% 30.12 in 10.0 mi South 13.8 mph - N/A   Clear
9:35 PM 51.8 °F - 23.0 °F 33% 30.12 in 10.0 mi South 13.8 mph - N/A   Clear
9:55 PM 51.8 °F - 24.8 °F 35% 30.12 in 10.0 mi South 10.4 mph - N/A   Clear
10:15 PM 51.8 °F - 24.8 °F 35% 30.12 in 10.0 mi South 10.4 mph - N/A   Clear
10:35 PM 50.0 °F - 24.8 °F 37% 30.12 in 10.0 mi South 10.4 mph - N/A   Clear
10:55 PM 50.0 °F - 26.6 °F 40% 30.12 in 10.0 mi South 9.2 mph - N/A   Clear
11:15 PM 48.2 °F - 26.6 °F 43% 30.12 in 10.0 mi South 8.1 mph - N/A   Clear
11:35 PM 48.2 °F - 28.4 °F 46% 30.12 in 10.0 mi South 10.4 mph - N/A   Clear
11:55 PM 48.2 °F - 28.4 °F 46% 30.11 in 10.0 mi South 10.4 mph - N/A   Clear